GW4288 Weather Reports


time (UTC)temp
C
wind
direction
speed
KPH
gust
KPH
rain 1hr
cm
rain 24hr
cm
rain mn
cm
humidity
%
barometer
mb
20260507060543 15 42 4.8 14.5 0.00 0.00 0.00 80 1010.9
20260507060042 15 101 6.4 12.9 0.00 0.00 0.00 80 1011.0
20260507055542 15 33 0.0 12.9 0.00 0.00 0.00 80 1010.9
20260507055042 15 112 3.2 11.3 0.00 0.00 0.00 80 1011.1
20260507054542 15 78 0.0 14.5 0.00 0.00 0.00 80 1010.9
20260507054042 15 97 3.2 14.5 0.00 0.00 0.00 80 1010.7
20260507053542 15 87 3.2 11.3 0.00 0.00 0.00 80 1010.7
20260507053043 15 11 1.6 6.4 0.00 0.00 0.00 80 1010.7
20260507052542 15 103 1.6 9.7 0.00 0.00 0.00 80 1010.5
20260507052042 15 236 3.2 9.7 0.00 0.00 0.00 80 1010.5
20260507051542 15 90 3.2 4.8 0.00 0.00 0.00 79 1010.2
20260507051327 15 190 1.6 11.3 0.00 0.00 0.00 80 1010.3
20260507050541 15 329 4.8 11.3 0.00 0.00 0.00 80 1010.1
20260507050042 15 66 4.8 14.5 0.00 0.00 0.00 80 1010.0
20260507045542 15 174 4.8 14.5 0.00 0.00 0.00 80 1010.0
20260507045041 15 106 3.2 11.3 0.00 0.00 0.00 81 1009.9
20260507044820 15 137 3.2 11.3 0.00 0.00 0.00 81 1009.8
20260507044041 15 84 3.2 12.9 0.00 0.00 0.00 81 1009.8
20260507043818 15 78 8.0 12.9 0.00 0.00 0.00 81 1009.7
20260507043325 15 342 3.2 4.8 0.00 0.00 0.00 81 1009.8
20260507042542 15 342 0.0 9.7 0.00 0.00 0.00 81 1009.7
20260507042047 15 92 3.2 14.5 0.00 0.00 0.00 81 1009.7
20260507041544 15 126 3.2 16.1 0.00 0.00 0.00 81 1009.8
20260507041047 15 96 9.7 16.1 0.00 0.00 0.00 81 1009.6
20260507040544 15 73 6.4 12.9 0.00 0.00 0.00 81 1009.6
20260507040340 15 89 1.6 9.7 0.00 0.00 0.00 81 1009.5
20260507035544 15 157 3.2 9.7 0.00 0.00 0.00 80 1009.5
20260507035328 15 138 3.2 9.7 0.00 0.00 0.00 80 1009.2
20260507034544 15 83 1.6 6.4 0.00 0.00 0.00 80 1009.3
20260507034047 15 112 4.8 14.5 0.00 0.00 0.00 80 1009.1
20260507033545 15 270 8.0 14.5 0.00 0.00 0.00 80 1009.0
20260507033047 15 33 0.0 11.3 0.00 0.00 0.00 80 1009.0
20260507032544 15 119 0.0 11.3 0.00 0.00 0.00 80 1008.7
20260507032330 15 142 1.6 16.1 0.00 0.00 0.00 80 1008.8
20260507031544 15 60 4.8 20.9 0.00 0.00 0.00 79 1008.8
20260507031047 15 118 4.8 20.9 0.00 0.00 0.00 79 1008.7
20260507030544 15 63 16.1 17.7 0.00 0.00 0.00 79 1008.6
20260507030059 15 108 8.0 11.3 0.00 0.00 0.00 79 1008.5
20260507025544 15 112 3.2 11.3 0.00 0.00 0.00 79 1008.7
20260507025323 15 21 0.0 11.3 0.00 0.00 0.00 78 1008.6
20260507024544 15 54 3.2 11.3 0.00 0.00 0.00 78 1008.6
20260507024048 15 125 1.6 11.3 0.00 0.00 0.00 79 1008.6
20260507023545 15 51 1.6 16.1 0.00 0.00 0.00 78 1008.7
20260507023047 15 147 0.0 16.1 0.00 0.00 0.00 78 1008.5
20260507022819 15 209 4.8 12.9 0.00 0.00 0.00 78 1008.4
20260507022100 15 58 4.8 16.1 0.00 0.00 0.00 77 1008.4
20260507021545 15 200 1.6 16.1 0.00 0.00 0.00 77 1008.3
20260507021047 15 123 1.6 20.9 0.00 0.00 0.00 77 1008.4
20260507020544 16 15 9.7 22.5 0.00 0.00 0.00 77 1008.4
20260507020338 16 93 1.6 24.1 0.00 0.00 0.00 77 1008.2
20260507015545 16 129 3.2 30.6 0.00 0.00 0.00 77 1008.1
20260507015047 16 75 6.4 30.6 0.00 0.00 0.00 77 1008.2
20260507014544 16 99 14.5 27.4 0.00 0.00 0.00 76 1008.2
20260507014047 16 24 8.0 27.4 0.00 0.00 0.00 76 1007.7
20260507013544 16 79 3.2 20.9 0.00 0.00 0.00 76 1008.1
20260507013048 16 153 3.2 25.7 0.00 0.00 0.00 76 1008.0
20260507012544 16 93 6.4 25.7 0.00 0.00 0.00 76 1008.0
20260507012047 16 58 6.4 35.4 0.00 0.00 0.00 76 1007.9
20260507011544 16 68 1.6 35.4 0.00 0.00 0.00 76 1007.9
20260507011100 16 98 6.4 24.1 0.00 0.00 0.00 76 1008.1
20260507010545 16 112 9.7 27.4 0.00 0.00 0.00 76 1007.9
20260507010100 16 80 6.4 27.4 0.00 0.00 0.00 76 1007.7
20260507005544 16 88 6.4 27.4 0.00 0.00 0.00 76 1008.0
20260507005328 16 111 8.0 27.4 0.00 0.00 0.00 75 1007.6
20260507004544 16 99 9.7 27.4 0.00 0.00 0.00 75 1007.6
20260507004047 16 59 16.1 24.1 0.00 0.00 0.00 75 1007.7
20260507003544 16 100 4.8 16.1 0.00 0.00 0.00 75 1007.4
20260507003046 16 70 14.5 16.1 0.00 0.00 0.00 75 1007.5
20260507002822 16 176 1.6 11.3 0.00 0.00 0.00 75 1007.7
20260507002047 16 133 1.6 27.4 0.00 0.00 0.00 76 1007.7
20260507001544 16 182 3.2 27.4 0.00 0.00 0.00 74 1007.7
20260507001047 16 138 1.6 22.5 0.00 0.00 0.00 74 1007.9
20260507000544 16 50 14.5 22.5 0.00 0.00 0.00 74 1007.6
20260507000101 16 112 4.8 22.5 0.00 0.00 0.00 74 1007.9
20260506235544 16 291 4.8 20.9 0.00 0.00 0.00 73 1007.9
20260506235048 16 95 8.0 20.9 0.00 0.00 0.00 74 1007.5
20260506234545 16 153 4.8 20.9 0.00 0.00 0.00 73 1007.7
20260506234058 16 42 6.4 17.7 0.00 0.00 0.00 73 1007.9
20260506233544 16 108 6.4 11.3 0.00 0.00 0.00 73 1007.3
20260506233048 16 76 4.8 16.1 0.00 0.00 0.00 73 1007.6
20260506232544 16 26 6.4 25.7 0.00 0.00 0.00 73 1007.7
20260506232048 17 85 9.7 25.7 0.00 0.00 0.00 72 1007.9
20260506231545 16 86 1.6 17.7 0.00 0.00 0.00 73 1007.9
20260506231121 17 15 6.4 24.1 0.00 0.00 0.00 72 1007.7
20260506231107 16 44 3.2 9.7 0.00 0.00 0.00 73 1007.9
20260506230100 17 4 8.0 24.1 0.00 0.00 0.00 72 1007.7
20260506225544 17 42 1.6 20.9 0.00 0.00 0.00 72 1007.6
20260506225048 17 143 6.4 22.5 0.00 0.00 0.00 72 1007.5
20260506224544 17 67 1.6 22.5 0.00 0.00 0.00 72 1007.6
20260506224048 17 295 6.4 16.1 0.00 0.00 0.00 71 1007.7
20260506223819 17 16 8.0 16.1 0.00 0.00 0.00 70 1007.6
20260506223047 17 69 3.2 16.1 0.00 0.00 0.00 71 1007.3
20260506222817 17 17 3.2 14.5 0.00 0.00 0.00 71 1007.4
20260506222047 17 220 6.4 11.3 0.00 0.00 0.00 71 1007.4
20260506221816 17 285 0.0 29.0 0.00 0.00 0.00 71 1007.5
20260506221047 17 250 4.8 29.0 0.00 0.00 0.00 70 1007.5
20260506220544 17 62 3.2 25.7 0.00 0.00 0.00 70 1007.5
20260506220047 17 154 8.0 16.1 0.00 0.00 0.00 70 1007.5
20260506215544 17 13 3.2 16.1 0.00 0.00 0.00 70 1007.3
20260506215047 17 67 4.8 16.1 0.00 0.00 0.00 70 1007.3
20260506214832 17 205 9.7 12.9 0.00 0.00 0.00 69 1007.3
20260506214322 17 272 4.8 20.9 0.00 0.00 0.00 69 1007.3
20260506213828 17 73 3.2 20.9 0.00 0.00 0.00 69 1007.5
20260506213047 17 127 1.6 22.5 0.00 0.00 0.00 69 1007.3
20260506212544 18 89 3.2 22.5 0.00 0.00 0.00 68 1007.5
20260506212048 18 88 1.6 27.4 0.00 0.00 0.00 68 1007.4
20260506211544 18 77 8.0 27.4 0.00 0.00 0.00 68 1007.4
20260506211047 18 89 3.2 25.7 0.00 0.00 0.00 68 1007.3
20260506210544 18 251 4.8 20.9 0.00 0.00 0.00 67 1007.2
20260506210100 18 18 6.4 24.1 0.00 0.00 0.00 67 1007.1
20260506205544 18 99 8.0 33.8 0.00 0.00 0.00 66 1007.0
20260506205326 18 15 9.7 33.8 0.00 0.00 0.00 66 1007.2
20260506204543 18 83 14.5 17.7 0.00 0.00 0.00 66 1007.1
20260506204047 18 101 4.8 14.5 0.00 0.00 0.00 66 1007.1
20260506203547 18 331 9.7 14.5 0.00 0.00 0.00 66 1006.9
20260506203047 18 28 4.8 14.5 0.00 0.00 0.00 66 1006.8
20260506202544 18 70 4.8 20.9 0.00 0.00 0.00 65 1006.9
20260506202046 18 168 12.9 20.9 0.00 0.00 0.00 65 1006.8
20260506201544 18 17 6.4 24.1 0.00 0.00 0.00 65 1006.7
20260506201047 18 88 4.8 24.1 0.00 0.00 0.00 64 1006.8
20260506200545 18 84 11.3 16.1 0.00 0.00 0.00 64 1006.7
20260506195544 19 96 11.3 25.7 0.00 0.00 0.00 63 1006.7
20260506195046 19 101 8.0 16.1 0.00 0.00 0.00 63 1006.7
20260506194544 19 53 3.2 16.1 0.00 0.00 0.00 63 1006.7
20260506194047 18 69 3.2 16.1 0.00 0.00 0.00 63 1006.8
20260506193544 18 75 1.6 17.7 0.00 0.00 0.00 64 1006.7
20260506193047 19 271 0.0 27.4 0.00 0.00 0.00 63 1006.6
20260506192827 19 83 4.8 27.4 0.00 0.00 0.00 62 1006.7
20260506192047 19 134 6.4 12.9 0.00 0.00 0.00 62 1006.9
20260506191821 19 126 4.8 16.1 0.00 0.00 0.00 61 1006.9
20260506191047 19 75 11.3 16.1 0.00 0.00 0.00 61 1006.7
20260506190545 19 104 0.0 33.8 0.00 0.00 0.00 62 1006.7
20260506190100 20 59 8.0 33.8 0.00 0.00 0.00 61 1006.8
20260506185546 20 144 8.0 16.1 0.00 0.00 0.00 60 1006.7
20260506185047 20 40 6.4 20.9 0.00 0.00 0.00 60 1006.7
20260506184544 20 91 11.3 20.9 0.00 0.00 0.00 60 1006.8
20260506184047 20 151 0.0 17.7 0.00 0.00 0.00 61 1006.5
20260506183544 20 37 1.6 17.7 0.00 0.00 0.00 60 1006.4
20260506183047 20 49 4.8 17.7 0.00 0.00 0.00 60 1006.2
20260506182544 20 124 8.0 12.9 0.00 0.00 0.00 60 1006.1
20260506182037 20 51 6.4 12.9 0.00 0.00 0.00 59 1006.1
20260506181810 20 95 4.8 17.7 0.00 0.00 0.00 60 1006.3
20260506181023 20 120 6.4 20.9 0.00 0.00 0.00 59 1006.1
20260506180521 20 74 8.0 20.9 0.00 0.00 0.00 59 1006.1
20260506180017 20 91 1.6 16.1 0.00 0.00 0.00 58 1006.3
20260506175517 20 106 3.2 16.1 0.00 0.00 0.00 59 1006.0
20260506175014 20 79 4.8 20.9 0.00 0.00 0.00 58 1006.1
20260506174506 20 46 4.8 20.9 0.00 0.00 0.00 58 1006.1
20260506174005 21 128 9.7 24.1 0.00 0.00 0.00 58 1006.3
20260506173503 21 97 12.9 24.1 0.00 0.00 0.00 57 1006.2
20260506172953 21 49 11.3 22.5 0.00 0.00 0.00 57 1006.3
20260506172454 21 79 6.4 22.5 0.00 0.00 0.00 57 1006.2
20260506171953 21 66 0.0 16.1 0.00 0.00 0.00 59 1006.2
20260506171454 21 107 1.6 17.7 0.00 0.00 0.00 58 1006.6
20260506170954 21 69 6.4 27.4 0.00 0.00 0.00 58 1006.2
20260506170506 21 89 6.4 27.4 0.00 0.00 0.00 58 1006.4
20260506165953 21 124 4.8 30.6 0.00 0.00 0.00 57 1006.4
20260506165453 21 28 6.4 30.6 0.00 0.00 0.00 58 1006.5
20260506164954 21 157 12.9 20.9 0.00 0.00 0.00 58 1006.5
20260506164453 21 78 3.2 25.7 0.00 0.00 0.00 58 1006.5
20260506163954 21 93 3.2 37.0 0.00 0.00 0.00 58 1006.5
20260506163454 21 71 4.8 37.0 0.00 0.00 0.00 58 1006.4
20260506162954 21 1 8.0 22.5 0.00 0.00 0.00 58 1006.7
20260506162731 21 126 4.8 22.5 0.00 0.00 0.00 58 1006.5
20260506161953 21 39 14.5 22.5 0.00 0.00 0.00 57 1006.8
20260506161453 22 113 6.4 27.4 0.00 0.00 0.00 58 1006.7
20260506161231 21 109 1.6 27.4 0.00 0.00 0.00 57 1006.9
20260506160454 21 104 9.7 24.1 0.00 0.00 0.00 57 1006.9
20260506160305 21 85 4.8 14.5 0.00 0.00 0.00 57 1007.1
20260506155453 21 52 3.2 12.9 0.00 0.00 0.00 57 1007.2
20260506154952 21 228 1.6 12.9 0.00 0.00 0.00 57 1007.0
20260506154453 21 101 11.3 17.7 0.00 0.00 0.00 57 1007.1
20260506154233 21 148 6.4 17.7 0.00 0.00 0.00 57 1007.3
20260506153454 21 42 4.8 20.9 0.00 0.00 0.00 57 1007.3
20260506152954 21 48 11.3 20.9 0.00 0.00 0.00 57 1007.4
20260506152454 21 43 9.7 20.9 0.00 0.00 0.00 57 1007.3
20260506151952 21 75 9.7 20.9 0.00 0.00 0.00 57 1007.4
20260506151454 21 61 6.4 25.7 0.00 0.00 0.00 57 1007.4
20260506151008 21 18 4.8 14.5 0.00 0.00 0.00 57 1007.5
20260506150959 21 92 4.8 25.7 0.00 0.00 0.00 57 1007.4
20260506150239 22 120 9.7 14.5 0.00 0.00 0.00 57 1007.5
20260506145454 22 130 0.0 16.1 0.00 0.00 0.00 57 1007.7
20260506144954 22 60 0.0 16.1 0.00 0.00 0.00 57 1008.0
20260506144730 22 351 1.6 27.4 0.00 0.00 0.00 56 1007.7
20260506143952 21 170 1.6 29.0 0.00 0.00 0.00 56 1007.9
20260506143453 21 219 6.4 29.0 0.00 0.00 0.00 57 1007.9
20260506142951 21 91 8.0 22.5 0.00 0.00 0.00 57 1008.1
20260506142452 21 140 6.4 22.5 0.00 0.00 0.00 58 1007.9
20260506141951 21 75 14.5 24.1 0.00 0.00 0.00 57 1007.9
20260506141450 21 285 0.0 29.0 0.00 0.00 0.00 58 1007.9
20260506140951 22 75 25.7 29.0 0.00 0.00 0.00 57 1008.1
20260506140535 22 133 3.2 25.7 0.00 0.00 0.00 57 1008.2
20260506140522 22 103 24.1 27.4 0.00 0.00 0.00 56 1008.2
20260506135451 21 108 6.4 24.1 0.00 0.00 0.00 59 1008.3
20260506134952 21 132 6.4 24.1 0.00 0.00 0.00 58 1008.3
20260506134451 21 53 8.0 27.4 0.00 0.00 0.00 58 1008.3
20260506133952 21 255 6.4 27.4 0.00 0.00 0.00 59 1008.4
20260506133451 22 90 3.2 16.1 0.00 0.00 0.00 60 1008.2
20260506132951 21 58 1.6 17.7 0.00 0.00 0.00 60 1008.5
20260506132454 21 49 9.7 22.5 0.00 0.00 0.00 60 1008.6
20260506131954 21 83 3.2 22.5 0.00 0.00 0.00 60 1008.5
20260506131453 22 99 12.9 22.5 0.00 0.00 0.00 58 1008.6
20260506131231 21 88 3.2 17.7 0.00 0.00 0.00 58 1008.4
20260506130453 22 90 3.2 16.1 0.00 0.00 0.00 57 1008.5
20260506125953 22 231 3.2 16.1 0.00 0.00 0.00 56 1008.4
20260506125453 22 173 1.6 17.7 0.00 0.00 0.00 55 1008.5
20260506124954 22 94 9.7 17.7 0.00 0.00 0.00 56 1008.6
20260506124454 21 29 1.6 25.7 0.00 0.00 0.00 55 1008.5
20260506123954 21 64 9.7 25.7 0.00 0.00 0.00 55 1008.4
20260506123455 22 114 3.2 11.3 0.00 0.00 0.00 53 1008.6
20260506122953 22 14 0.0 17.7 0.00 0.00 0.00 54 1008.7
20260506122453 22 83 0.0 22.5 0.00 0.00 0.00 54 1008.6
20260506121954 22 341 4.8 22.5 0.00 0.00 0.00 53 1008.5
20260506121455 23 295 9.7 16.1 0.00 0.00 0.00 52 1008.7
20260506120954 23 296 3.2 17.7 0.00 0.00 0.00 51 1008.6
20260506120453 22 78 3.2 27.4 0.00 0.00 0.00 52 1008.3
20260506115953 21 93 4.8 27.4 0.00 0.00 0.00 55 1008.7
20260506115454 22 73 1.6 24.1 0.00 0.00 0.00 53 1008.6
20260506115012 22 46 11.3 14.5 0.00 0.00 0.00 55 1008.7
20260506115002 21 85 6.4 24.1 0.00 0.00 0.00 54 1008.6
20260506113953 22 253 3.2 17.7 0.00 0.00 0.00 54 1008.8
20260506113447 21 4 6.4 22.5 0.00 0.00 0.00 56 1008.8
20260506112947 23 122 6.4 22.5 0.00 0.00 0.00 53 1009.1
20260506112448 22 81 9.7 17.7 0.00 0.00 0.00 53 1008.7
20260506111943 22 21 8.0 17.7 0.00 0.00 0.00 53 1008.9
20260506111459 22 65 3.2 17.7 0.00 0.00 0.00 54 1008.7
20260506110942 22 112 9.7 17.7 0.00 0.00 0.00 53 1008.8
20260506110445 22 95 3.2 12.9 0.00 0.00 0.00 55 1008.8
20260506105941 22 84 4.8 20.9 0.00 0.00 0.00 54 1008.8
20260506105444 21 87 0.0 20.9 0.00 0.00 0.00 55 1008.8
20260506105222 21 114 4.8 20.9 0.00 0.00 0.00 55 1008.8
20260506104446 21 1 6.4 20.9 0.00 0.00 0.00 55 1008.8
20260506103941 22 64 12.9 17.7 0.00 0.00 0.00 54 1008.9
20260506103728 22 13 3.2 9.7 0.00 0.00 0.00 52 1009.1
20260506102941 21 44 3.2 9.7 0.00 0.00 0.00 55 1008.9
20260506102445 21 314 4.8 16.1 0.00 0.00 0.00 57 1009.2
20260506101942 21 313 1.6 24.1 0.00 0.00 0.00 57 1009.1
20260506101444 21 329 6.4 24.1 0.00 0.00 0.00 57 1009.0
20260506100945 20 96 8.0 11.3 0.00 0.00 0.00 58 1009.1
20260506100502 20 55 1.6 11.3 0.00 0.00 0.00 60 1009.1
20260506095944 20 113 1.6 11.3 0.00 0.00 0.00 61 1009.1
20260506095446 20 88 8.0 11.3 0.00 0.00 0.00 61 1009.2
20260506094941 20 83 3.2 12.9 0.00 0.00 0.00 62 1009.2
20260506094445 20 65 8.0 20.9 0.00 0.00 0.00 62 1009.4
20260506094218 20 45 3.2 20.9 0.00 0.00 0.00 62 1009.3
20260506093444 20 44 8.0 16.1 0.00 0.00 0.00 62 1009.2
20260506092940 21 119 6.4 16.1 0.00 0.00 0.00 60 1009.3
20260506092446 20 99 9.7 20.9 0.00 0.00 0.00 61 1009.4
20260506092217 20 17 6.4 20.9 0.00 0.00 0.00 63 1009.3
20260506091444 20 270 1.6 17.7 0.00 0.00 0.00 61 1009.4
20260506091219 20 285 6.4 17.7 0.00 0.00 0.00 61 1009.1
20260506090445 20 338 11.3 20.9 0.00 0.00 0.00 62 1009.4
20260506085944 20 306 9.7 20.9 0.00 0.00 0.00 61 1009.3
20260506085444 20 85 3.2 27.4 0.00 0.00 0.00 62 1009.3
20260506084942 20 305 4.8 27.4 0.00 0.00 0.00 64 1009.3
20260506084444 20 51 3.2 17.7 0.00 0.00 0.00 63 1009.1
20260506083941 20 69 8.0 14.5 0.00 0.00 0.00 63 1009.1
20260506083444 19 332 4.8 14.5 0.00 0.00 0.00 65 1009.1
20260506082942 19 283 1.6 16.1 0.00 0.00 0.00 65 1009.1
20260506082741 19 344 4.8 16.1 0.00 0.00 0.00 65 1009.3
20260506081941 18 56 3.2 16.1 0.00 0.00 0.00 66 1009.2
20260506081444 18 114 3.2 17.7 0.00 0.00 0.00 67 1009.1
20260506080941 18 92 8.0 22.5 0.00 0.00 0.00 67 1009.2
20260506080446 18 295 6.4 22.5 0.00 0.00 0.00 67 1009.2
20260506073442 17 84 9.7 22.5 0.00 0.00 0.00 69 1009.2
20260506072942 17 51 4.8 20.9 0.00 0.00 0.00 69 1009.2
20260506072441 18 223 3.2 20.9 0.00 0.00 0.00 69 1009.3
20260506071941 17 91 17.7 20.9 0.00 0.00 0.00 69 1009.1
20260506071512 18 262 6.4 11.3 0.00 0.00 0.00 68 1009.3
20260506071450 17 57 9.7 20.9 0.00 0.00 0.00 70 1009.2
20260506070729 17 249 1.6 14.5 0.00 0.00 0.00 69 1009.3
20260506062441 16 114 6.4 16.1 0.00 0.00 0.00 72 1009.0
20260506061928 16 80 6.4 17.7 0.00 0.00 0.00 72 1009.0
20260506061430 16 87 8.0 20.9 0.00 0.00 0.00 72 1008.9